Location: Eexterzandvoort
(53.0303°N, 6.7884°E)
Time: 20:41:49
(UTC+00:00)

Cosmos 1805 - Pass Details

Date: 19 May 2025
Orbit: 448 x 452 km, 82.5° (Epoch: 20 June)

Event Time Altitude Azimuth Distance (km) Brightness Sun altitude
Rises 20:44:27 0° 357° (N) 2,471 7.6 -8.8°
Reaches altitude 10° 20:46:45 10° 10° (N) 1,592 6.3 -9.0°
Maximum altitude 20:49:45 27° 70° (ENE) 907 4.3 -9.3°
Enters shadow 20:52:17 13° 125° (SE) 1,422 4.8 -9.5°
